User: anonymous   Login
Location: Days
(41.3591°N, 106.7339°W)
Time: 14:06:16
(UTC+00:00)
Language:

FENGYUN 1C DEB - Orbit

View from above orbital plane
View from above orbital plane
View from above satellite
View from above satellite

Ground track
Ground track

The orbit data is extracted from the following two-line orbital elements,

1 31087U 99025BGH 22340.92796505  .00001724  00000-0  36931-3 0  9997
2 31087  98.2104  14.5049 0209487  96.5763  25.6541 14.47143219827673
Epoch (UTC): 06 December 2022 22:16:16
Eccentricity: 0.0209487
inclination: 98.2104°
perigee height: 586 km
apogee height: 884 km
right ascension of ascending node: 14.5049°
argument of perigee: 96.5763°
revolutions per day: 14.47143219
mean anomaly at epoch: 25.6541°
orbit number at epoch: 82767

The dashed part of the orbit path shows where the satellite is in the earth's shadow,  

DLR